Tracking 29777 objects as of 7-Oct-2024
HD Live streaming from Space Station
objects crossing your sky now

USA 274 DEB

Track USA 274 DEB now!
10-day predictions
USA 274 DEB is classified as:


NORAD ID: 42065
Int'l Code: 2017-011B
Perigee: 1,028.9 km
Apogee: 1,196.9 km
Inclination: 63.4 °
Period: 107.4 minutes
Semi major axis: 7483 km
RCS: Unknown
Launch date: March 1, 2017
Source: United States (US)
Launch site: AIR FORCE WESTERN TEST RANGE (AFWTR)

Note: This is SATELLITE DEBRIS
Your satellite tracking list
Your tracking list is empty




NASA's NSSDC Master Catalog

Two Line Element Set (TLE):
1 42065U 17011B   24280.10847412 0.00000000  00000-0  00000-0 0    03
2 42065  63.4405 288.5247 0112248   1.6057 358.3943 13.40934614    04
Source of the keplerian elements: McCants